Time,TemperatureF,DewpointF,PressureIn,WindDirection,WindDirectionDegrees,WindSpeedMPH,WindSpeedGustMPH,Humidity,HourlyPrecipIn,Conditions,Clouds,dailyrainin,SolarRadiationWatts/m^2,SoftwareType,DateUTC
2013-03-21 00:00:00,45.3,26.8,29.78,WSW,244,0.0,0.0,48,0.00,,---,0.00,0.00,VWS V14.01,2013-03-21 04:00:00,
2013-03-21 00:01:00,45.1,26.6,29.78,WSW,244,0.0,0.0,48,0.00,,---,0.00,0.00,VWS V14.01,2013-03-21 04:01:00,
2013-03-21 00:06:00,44.8,26.3,29.78,WSW,244,0.0,0.0,48,0.00,,---,0.00,0.00,VWS V14.01,2013-03-21 04:06:00,
2013-03-21 00:11:00,44.8,27.3,29.78,NW,313,0.0,2.0,50,0.00,,---,0.00,0.00,VWS V14.01,2013-03-21 04:11:00,
2013-03-21 00:16:00,45.0,26.5,29.78,SW,228,3.0,4.0,48,0.00,,---,0.00,0.00,VWS V14.01,2013-03-21 04:16:00,
2013-03-21 00:21:00,45.6,26.0,29.78,West,264,0.0,4.0,46,0.00,,---,0.00,0.00,VWS V14.01,2013-03-21 04:21:00,
2013-03-21 00:26:00,45.7,25.6,29.78,SSW,207,1.0,4.0,45,0.00,,---,0.00,0.00,VWS V14.01,2013-03-21 04:26:00,
2013-03-21 00:30:00,47.3,27.6,29.78,WSW,244,0.0,3.0,46,0.00,,---,0.00,0.00,VWS V14.01,2013-03-21 04:30:00,
2013-03-21 00:31:00,45.8,25.7,29.79,SE,133,0.0,4.0,45,0.00,,---,0.00,0.00,VWS V14.01,2013-03-21 04:31:00,
2013-03-21 00:36:00,46.0,25.3,29.79,NW,310,5.0,5.0,44,0.00,,---,0.00,0.00,VWS V14.01,2013-03-21 04:36:00,
2013-03-21 00:41:00,46.1,24.9,29.79,SSE,163,2.0,9.0,43,0.00,,---,0.00,0.00,VWS V14.01,2013-03-21 04:41:00,
2013-03-21 00:46:00,46.0,24.8,29.79,North,355,1.0,10.0,43,0.00,,---,0.00,0.00,VWS V14.01,2013-03-21 04:46:00,
2013-03-21 00:51:00,45.8,24.6,29.79,SSW,203,5.0,10.0,43,0.00,,---,0.00,0.00,VWS V14.01,2013-03-21 04:51:00,
2013-03-21 00:56:00,45.5,24.9,29.79,NNW,348,0.0,11.0,44,0.00,,---,0.00,0.00,VWS V14.01,2013-03-21 04:56:00,
2013-03-21 01:00:00,45.0,27.0,29.78,WSW,244,0.0,0.0,49,0.00,,---,0.00,0.00,VWS V14.01,2013-03-21 05:00:00,
2013-03-21 01:01:00,45.2,25.1,29.80,NNE,27,3.0,11.0,45,0.00,,---,0.00,0.00,VWS V14.01,2013-03-21 05:01:00,
2013-03-21 01:06:00,45.1,25.0,29.80,NE,34,2.0,5.0,45,0.00,,---,0.00,0.00,VWS V14.01,2013-03-21 05:06:00,
2013-03-21 01:11:00,44.7,25.7,29.80,WNW,299,1.0,5.0,47,0.00,,---,0.00,0.00,VWS V14.01,2013-03-21 05:11:00,
2013-03-21 01:16:00,44.3,25.9,29.80,SW,215,1.0,6.0,48,0.00,,---,0.00,0.00,VWS V14.01,2013-03-21 05:16:00,
2013-03-21 01:21:00,43.9,27.0,29.80,North,9,0.0,10.0,51,0.00,,---,0.00,0.00,VWS V14.01,2013-03-21 05:21:00,
2013-03-21 01:26:00,43.6,27.1,29.81,West,274,0.0,10.0,52,0.00,,---,0.00,0.00,VWS V14.01,2013-03-21 05:26:00,
2013-03-21 01:30:00,45.8,25.1,29.79,WNW,300,4.0,4.0,44,0.00,,---,0.00,0.00,VWS V14.01,2013-03-21 05:30:00,
2013-03-21 01:31:00,43.1,28.0,29.81,SSE,161,0.0,10.0,55,0.00,,---,0.00,0.00,VWS V14.01,2013-03-21 05:31:00,
2013-03-21 01:36:00,42.7,27.7,29.81,East,98,0.0,11.0,55,0.00,,---,0.00,0.00,VWS V14.01,2013-03-21 05:36:00,
2013-03-21 01:41:00,42.4,27.8,29.81,NNE,29,0.0,11.0,56,0.00,,---,0.00,0.00,VWS V14.01,2013-03-21 05:41:00,
2013-03-21 01:46:00,42.0,28.3,29.82,NNW,341,8.0,14.0,58,0.00,,---,0.00,0.00,VWS V14.01,2013-03-21 05:46:00,
2013-03-21 01:51:00,41.6,27.9,29.82,North,355,2.0,14.0,58,0.00,,---,0.00,0.00,VWS V14.01,2013-03-21 05:51:00,
2013-03-21 01:56:00,41.2,27.6,29.82,WSW,253,5.0,14.0,58,0.00,,---,0.00,0.00,VWS V14.01,2013-03-21 05:56:00,
2013-03-21 02:00:00,45.2,25.1,29.80,SW,226,2.0,11.0,45,0.00,,---,0.00,0.00,VWS V14.01,2013-03-21 06:00:00,
2013-03-21 02:01:00,40.8,25.0,29.82,NNW,344,0.0,14.0,53,0.00,,---,0.00,0.00,VWS V14.01,2013-03-21 06:01:00,
2013-03-21 02:07:00,40.2,22.1,29.82,NE,52,3.0,12.0,48,0.00,,---,0.00,0.00,VWS V14.01,2013-03-21 06:07:00,
2013-03-21 02:12:00,39.9,21.3,29.82,West,271,8.0,15.0,47,0.00,,---,0.00,0.00,VWS V14.01,2013-03-21 06:12:00,
2013-03-21 02:17:00,39.7,21.6,29.82,South,184,0.0,15.0,48,0.00,,---,0.00,0.00,VWS V14.01,2013-03-21 06:17:00,
2013-03-21 02:22:00,39.5,21.5,29.83,SW,228,0.0,15.0,48,0.00,,---,0.00,0.00,VWS V14.01,2013-03-21 06:22:00,
2013-03-21 02:27:00,39.2,21.2,29.82,WNW,301,0.0,15.0,48,0.00,,---,0.00,0.00,VWS V14.01,2013-03-21 06:27:00,
2013-03-21 02:30:00,43.1,28.0,29.81,NE,42,1.0,10.0,55,0.00,,---,0.00,0.00,VWS V14.01,2013-03-21 06:30:00,
2013-03-21 02:32:00,39.1,21.1,29.82,NE,36,3.0,15.0,48,0.00,,---,0.00,0.00,VWS V14.01,2013-03-21 06:32:00,
2013-03-21 02:37:00,39.0,21.0,29.82,North,10,0.0,8.0,48,0.00,,---,0.00,0.00,VWS V14.01,2013-03-21 06:37:00,
2013-03-21 02:42:00,38.9,20.4,29.81,SSW,205,1.0,11.0,47,0.00,,---,0.00,0.00,VWS V14.01,2013-03-21 06:42:00,
2013-03-21 02:47:00,38.8,20.3,29.82,NNW,327,0.0,11.0,47,0.00,,---,0.00,0.00,VWS V14.01,2013-03-21 06:47:00,
2013-03-21 02:52:00,38.6,20.1,29.81,NNE,33,0.0,11.0,47,0.00,,---,0.00,0.00,VWS V14.01,2013-03-21 06:52:00,
2013-03-21 02:57:00,38.4,20.4,29.81,North,355,0.0,11.0,48,0.00,,---,0.00,0.00,VWS V14.01,2013-03-21 06:57:00,
2013-03-21 03:00:00,40.7,24.9,29.82,East,90,0.0,14.0,53,0.00,,---,0.00,0.00,VWS V14.01,2013-03-21 07:00:00,
2013-03-21 03:02:00,38.3,19.9,29.81,NW,323,0.0,14.0,47,0.00,,---,0.00,0.00,VWS V14.01,2013-03-21 07:02:00,
2013-03-21 03:07:00,38.3,19.9,29.81,NNW,340,1.0,10.0,47,0.00,,---,0.00,0.00,VWS V14.01,2013-03-21 07:07:00,
2013-03-21 03:12:00,38.3,19.9,29.81,NW,307,0.0,10.0,47,0.00,,---,0.00,0.00,VWS V14.01,2013-03-21 07:12:00,
2013-03-21 03:17:00,38.2,19.3,29.81,West,272,0.0,10.0,46,0.00,,---,0.00,0.00,VWS V14.01,2013-03-21 07:17:00,
2013-03-21 03:22:00,38.0,18.6,29.81,SSW,208,0.0,10.0,45,0.00,,---,0.00,0.00,VWS V14.01,2013-03-21 07:22:00,
2013-03-21 03:27:00,37.9,18.5,29.81,North,351,1.0,10.0,45,0.00,,---,0.00,0.00,VWS V14.01,2013-03-21 07:27:00,
2013-03-21 03:30:00,39.1,21.1,29.82,NNW,338,4.0,15.0,48,0.00,,---,0.00,0.00,VWS V14.01,2013-03-21 07:30:00,
2013-03-21 03:32:00,37.7,17.8,29.81,SSW,206,3.0,10.0,44,0.00,,---,0.00,0.00,VWS V14.01,2013-03-21 07:32:00,
2013-03-21 03:37:00,37.7,17.2,29.81,West,279,0.0,5.0,43,0.00,,---,0.00,0.00,VWS V14.01,2013-03-21 07:37:00,
2013-03-21 03:42:00,37.5,17.0,29.81,NNW,327,1.0,9.0,43,0.00,,---,0.00,0.00,VWS V14.01,2013-03-21 07:42:00,
2013-03-21 03:47:00,37.3,16.9,29.81,NW,315,0.0,9.0,43,0.00,,---,0.00,0.00,VWS V14.01,2013-03-21 07:47:00,
2013-03-21 03:52:00,37.2,16.2,29.81,WNW,303,0.0,9.0,42,0.00,,---,0.00,0.00,VWS V14.01,2013-03-21 07:52:00,
2013-03-21 03:57:00,37.1,16.1,29.80,WNW,299,2.0,9.0,42,0.00,,---,0.00,0.00,VWS V14.01,2013-03-21 07:57:00,
2013-03-21 04:00:00,38.3,19.9,29.81,NW,313,5.0,14.0,47,0.00,,---,0.00,0.00,VWS V14.01,2013-03-21 08:00:00,
2013-03-21 04:02:00,37.1,15.6,29.80,SSW,207,0.0,9.0,41,0.00,,---,0.00,0.00,VWS V14.01,2013-03-21 08:02:00,
2013-03-21 04:07:00,37.0,15.5,29.80,WSW,241,0.0,8.0,41,0.00,,---,0.00,0.00,VWS V14.01,2013-03-21 08:07:00,
2013-03-21 04:12:00,36.8,15.9,29.80,WNW,298,0.0,8.0,42,0.00,,---,0.00,0.00,VWS V14.01,2013-03-21 08:12:00,
2013-03-21 04:17:00,36.4,15.5,29.80,NNW,337,3.0,8.0,42,0.00,,---,0.00,0.00,VWS V14.01,2013-03-21 08:17:00,
2013-03-21 04:22:00,36.2,14.8,29.80,NW,310,0.0,8.0,41,0.00,,---,0.00,0.00,VWS V14.01,2013-03-21 08:22:00,
2013-03-21 04:27:00,36.1,14.7,29.80,WNW,290,2.0,8.0,41,0.00,,---,0.00,0.00,VWS V14.01,2013-03-21 08:27:00,
2013-03-21 04:30:00,37.7,17.8,29.81,NNE,32,1.0,10.0,44,0.00,,---,0.00,0.00,VWS V14.01,2013-03-21 08:30:00,
2013-03-21 04:32:00,36.0,14.0,29.81,SW,236,1.0,8.0,40,0.00,,---,0.00,0.00,VWS V14.01,2013-03-21 08:32:00,
2013-03-21 04:37:00,35.9,13.9,29.81,South,184,2.0,6.0,40,0.00,,---,0.00,0.00,VWS V14.01,2013-03-21 08:37:00,
2013-03-21 04:42:00,35.9,13.9,29.80,NNE,26,0.0,6.0,40,0.00,,---,0.00,0.00,VWS V14.01,2013-03-21 08:42:00,
2013-03-21 04:47:00,35.7,12.6,29.81,NNE,24,0.0,6.0,38,0.00,,---,0.00,0.00,VWS V14.01,2013-03-21 08:47:00,
2013-03-21 04:52:00,35.7,11.4,29.81,North,9,4.0,10.0,36,0.00,,---,0.00,0.00,VWS V14.01,2013-03-21 08:52:00,
2013-03-21 04:57:00,35.6,10.0,29.81,SSW,209,4.0,10.0,34,0.00,,---,0.00,0.00,VWS V14.01,2013-03-21 08:57:00,
2013-03-21 05:00:00,37.1,15.6,29.80,SSW,198,0.0,9.0,41,0.00,,---,0.00,0.00,VWS V14.01,2013-03-21 09:00:00,
2013-03-21 05:02:00,35.5,9.9,29.80,NNW,331,1.0,11.0,34,0.00,,---,0.00,0.00,VWS V14.01,2013-03-21 09:02:00,
2013-03-21 05:07:00,35.2,9.7,29.80,SW,218,2.0,7.0,34,0.00,,---,0.00,0.00,VWS V14.01,2013-03-21 09:07:00,
2013-03-21 05:12:00,35.0,10.1,29.80,SE,126,0.0,7.0,35,0.00,,---,0.00,0.00,VWS V14.01,2013-03-21 09:12:00,
2013-03-21 05:17:00,34.9,10.7,29.80,ENE,71,0.0,7.0,36,0.00,,---,0.00,0.00,VWS V14.01,2013-03-21 09:17:00,
2013-03-21 05:22:00,34.6,10.4,29.81,SSW,203,0.0,7.0,36,0.00,,---,0.00,0.00,VWS V14.01,2013-03-21 09:22:00,
2013-03-21 05:27:00,34.4,10.2,29.80,WSW,238,0.0,7.0,36,0.00,,---,0.00,0.00,VWS V14.01,2013-03-21 09:27:00,
2013-03-21 05:30:00,36.0,14.0,29.81,NNW,342,0.0,8.0,40,0.00,,---,0.00,0.00,VWS V14.01,2013-03-21 09:30:00,
2013-03-21 05:32:00,34.4,11.4,29.81,SW,217,0.0,7.0,38,0.00,,---,0.00,0.00,VWS V14.01,2013-03-21 09:32:00,
2013-03-21 05:37:00,34.2,11.8,29.81,WNW,293,1.0,4.0,39,0.00,,---,0.00,0.00,VWS V14.01,2013-03-21 09:37:00,
2013-03-21 05:42:00,34.1,12.3,29.81,SSW,193,0.0,5.0,40,0.00,,---,0.00,0.00,VWS V14.01,2013-03-21 09:42:00,
2013-03-21 05:47:00,34.0,12.2,29.81,NE,42,1.0,5.0,40,0.00,,---,0.00,0.00,VWS V14.01,2013-03-21 09:47:00,
2013-03-21 05:52:00,33.9,12.7,29.81,SW,219,0.0,5.0,41,0.00,,---,0.00,0.00,VWS V14.01,2013-03-21 09:52:00,
2013-03-21 05:57:00,33.7,13.1,29.82,SW,217,0.0,5.0,42,0.00,,---,0.00,0.00,VWS V14.01,2013-03-21 09:57:00,
2013-03-21 06:00:00,35.5,9.9,29.80,ENE,59,0.0,11.0,34,0.00,,---,0.00,0.00,VWS V14.01,2013-03-21 10:00:00,
2013-03-21 06:02:00,33.5,13.4,29.82,SW,226,0.0,5.0,43,0.00,,---,0.00,0.00,VWS V14.01,2013-03-21 10:02:00,
2013-03-21 06:07:00,33.2,13.7,29.82,North,355,0.0,2.0,44,0.00,,---,0.00,0.00,VWS V14.01,2013-03-21 10:07:00,
2013-03-21 06:12:00,33.2,13.1,29.82,SW,223,0.0,2.0,43,0.00,,---,0.00,0.00,VWS V14.01,2013-03-21 10:12:00,
2013-03-21 06:16:00,33.0,13.5,29.82,West,260,0.0,3.0,44,0.00,,---,0.00,0.00,VWS V14.01,2013-03-21 10:16:00,
2013-03-21 06:22:00,32.9,13.9,29.82,WNW,286,0.0,3.0,45,0.00,,---,0.00,0.00,VWS V14.01,2013-03-21 10:22:00,
2013-03-21 06:26:00,32.7,14.2,29.82,SE,128,0.0,3.0,46,0.00,,---,0.00,0.00,VWS V14.01,2013-03-21 10:26:00,
2013-03-21 06:30:00,34.4,11.4,29.81,SW,217,0.0,7.0,38,0.00,,---,0.00,0.00,VWS V14.01,2013-03-21 10:30:00,
2013-03-21 06:31:00,32.6,14.1,29.82,ESE,120,0.0,3.0,46,0.00,,---,0.00,0.00,VWS V14.01,2013-03-21 10:31:00,
2013-03-21 06:36:00,32.6,13.6,29.82,NW,319,2.0,4.0,45,0.00,,---,0.00,0.00,VWS V14.01,2013-03-21 10:36:00,
2013-03-21 06:41:00,32.8,12.8,29.82,WSW,257,0.0,8.0,43,0.00,,---,0.00,0.00,VWS V14.01,2013-03-21 10:41:00,
2013-03-21 06:46:00,32.8,12.8,29.82,NE,44,4.0,8.0,43,0.00,,---,0.00,0.00,VWS V14.01,2013-03-21 10:46:00,
2013-03-21 06:51:00,32.8,12.8,29.83,East,92,0.0,8.0,43,0.00,,---,0.00,0.00,VWS V14.01,2013-03-21 10:51:00,
2013-03-21 06:56:00,32.8,12.8,29.83,West,277,0.0,8.0,43,0.00,,---,0.00,0.00,VWS V14.01,2013-03-21 10:56:00,
2013-03-21 07:00:00,33.5,13.4,29.82,SW,226,0.0,5.0,43,0.00,,---,0.00,0.00,VWS V14.01,2013-03-21 11:00:00,
2013-03-21 07:01:00,32.5,13.0,29.83,West,277,0.0,8.0,44,0.00,,---,0.00,0.00,VWS V14.01,2013-03-21 11:01:00,
2013-03-21 07:06:00,32.3,12.8,29.83,WSW,254,0.0,5.0,44,0.00,,---,0.00,0.00,VWS V14.01,2013-03-21 11:06:00,
2013-03-21 07:11:00,32.3,12.8,29.83,SSW,207,0.0,5.0,44,0.00,,---,0.00,0.00,VWS V14.01,2013-03-21 11:11:00,
2013-03-21 07:16:00,32.2,12.8,29.83,SW,229,0.0,5.0,44,0.00,,---,0.00,0.00,VWS V14.01,2013-03-21 11:16:00,
2013-03-21 07:21:00,32.2,13.3,29.83,North,355,2.0,7.0,45,0.00,,---,0.00,0.00,VWS V14.01,2013-03-21 11:21:00,
2013-03-21 07:26:00,32.2,13.3,29.83,West,268,1.0,7.0,45,0.00,,---,0.00,0.00,VWS V14.01,2013-03-21 11:26:00,
2013-03-21 07:30:00,32.6,14.1,29.82,ESE,120,0.0,3.0,46,0.00,,---,0.00,0.00,VWS V14.01,2013-03-21 11:30:00,
2013-03-21 07:31:00,32.2,13.8,29.84,WNW,290,0.0,7.0,46,0.00,,---,0.00,5.00,VWS V14.01,2013-03-21 11:31:00,
2013-03-21 07:36:00,32.1,14.2,29.84,WNW,284,0.0,2.0,47,0.00,,---,0.00,7.00,VWS V14.01,2013-03-21 11:36:00,
2013-03-21 07:41:00,32.0,13.6,29.84,NNW,329,0.0,2.0,46,0.00,,---,0.00,9.00,VWS V14.01,2013-03-21 11:41:00,
2013-03-21 07:46:00,31.9,14.0,29.85,WNW,284,0.0,4.0,47,0.00,,---,0.00,11.00,VWS V14.01,2013-03-21 11:46:00,
2013-03-21 07:51:00,31.9,14.4,29.85,WNW,286,0.0,4.0,48,0.00,,---,0.00,12.00,VWS V14.01,2013-03-21 11:51:00,
2013-03-21 07:56:00,31.9,14.4,29.85,North,360,6.0,6.0,48,0.00,,---,0.00,18.00,VWS V14.01,2013-03-21 11:56:00,
2013-03-21 08:00:00,32.5,13.0,29.83,West,277,0.0,8.0,44,0.00,,---,0.00,0.00,VWS V14.01,2013-03-21 12:00:00,
2013-03-21 08:01:00,32.0,15.0,29.84,NNW,334,0.0,6.0,49,0.00,,---,0.00,16.00,VWS V14.01,2013-03-21 12:01:00,
2013-03-21 08:06:00,32.1,14.6,29.84,NNE,12,0.0,6.0,48,0.00,,---,0.00,19.00,VWS V14.01,2013-03-21 12:06:00,
2013-03-21 08:11:00,32.3,15.3,29.84,NNW,329,0.0,6.0,49,0.00,,---,0.00,21.00,VWS V14.01,2013-03-21 12:11:00,
2013-03-21 08:16:00,32.4,14.9,29.84,WNW,292,0.0,8.0,48,0.00,,---,0.00,21.00,VWS V14.01,2013-03-21 12:16:00,
2013-03-21 08:22:00,32.6,15.1,29.85,NNW,342,0.0,8.0,48,0.00,,---,0.00,23.00,VWS V14.01,2013-03-21 12:22:00,
2013-03-21 08:27:00,32.8,14.8,29.85,WSW,238,1.0,8.0,47,0.00,,---,0.00,23.00,VWS V14.01,2013-03-21 12:27:00,
2013-03-21 08:30:00,32.2,13.8,29.84,WNW,283,0.0,7.0,46,0.00,,---,0.00,5.00,VWS V14.01,2013-03-21 12:30:00,
2013-03-21 08:32:00,32.9,15.4,29.85,WNW,291,0.0,8.0,48,0.00,,---,0.00,28.00,VWS V14.01,2013-03-21 12:32:00,
2013-03-21 08:37:00,33.0,15.0,29.85,WNW,284,2.0,3.0,47,0.00,,---,0.00,28.00,VWS V14.01,2013-03-21 12:37:00,
2013-03-21 08:42:00,33.2,15.2,29.85,North,9,0.0,8.0,47,0.00,,---,0.00,58.00,VWS V14.01,2013-03-21 12:42:00,
2013-03-21 08:46:00,33.3,15.3,29.85,NW,319,0.0,8.0,47,0.00,,---,0.00,39.00,VWS V14.01,2013-03-21 12:46:00,
2013-03-21 08:51:00,33.5,15.4,29.85,NNW,348,6.0,9.0,47,0.00,,---,0.00,28.00,VWS V14.01,2013-03-21 12:51:00,
2013-03-21 08:56:00,33.4,14.4,29.85,WNW,300,0.0,9.0,45,0.00,,---,0.00,30.00,VWS V14.01,2013-03-21 12:56:00,
2013-03-21 09:00:00,32.0,15.0,29.84,NNW,334,0.0,6.0,49,0.00,,---,0.00,16.00,VWS V14.01,2013-03-21 13:00:00,
2013-03-21 09:01:00,33.5,14.4,29.86,West,278,1.0,9.0,45,0.00,,---,0.00,40.00,VWS V14.01,2013-03-21 13:01:00,
2013-03-21 09:06:00,33.7,13.6,29.86,NNW,334,0.0,8.0,43,0.00,,---,0.00,35.00,VWS V14.01,2013-03-21 13:06:00,
2013-03-21 09:11:00,33.8,13.7,29.86,WSW,251,1.0,8.0,43,0.00,,---,0.00,32.00,VWS V14.01,2013-03-21 13:11:00,
2013-03-21 09:16:00,34.1,14.0,29.86,NW,315,2.0,8.0,43,0.00,,---,0.00,141.00,VWS V14.01,2013-03-21 13:16:00,
2013-03-21 09:21:00,34.2,14.1,29.86,WNW,287,0.0,9.0,43,0.00,,---,0.00,105.00,VWS V14.01,2013-03-21 13:21:00,
2013-03-21 09:26:00,34.4,13.7,29.87,NW,307,3.0,11.0,42,0.00,,---,0.00,142.00,VWS V14.01,2013-03-21 13:26:00,
2013-03-21 09:30:00,32.9,15.4,29.85,North,355,3.0,8.0,48,0.00,,---,0.00,28.00,VWS V14.01,2013-03-21 13:30:00,
2013-03-21 09:31:00,34.3,14.1,29.86,SSE,153,0.0,11.0,43,0.00,,---,0.00,230.00,VWS V14.01,2013-03-21 13:31:00,
2013-03-21 09:36:00,34.4,14.8,29.86,SSW,202,0.0,7.0,44,0.00,,---,0.00,193.00,VWS V14.01,2013-03-21 13:36:00,
2013-03-21 09:41:00,34.6,14.4,29.87,NNW,342,4.0,7.0,43,0.00,,---,0.00,269.00,VWS V14.01,2013-03-21 13:41:00,
2013-03-21 09:46:00,34.9,14.7,29.87,NW,309,0.0,9.0,43,0.00,,---,0.00,241.00,VWS V14.01,2013-03-21 13:46:00,
2013-03-21 09:51:00,34.9,13.6,29.86,West,277,0.0,9.0,41,0.00,,---,0.00,169.00,VWS V14.01,2013-03-21 13:51:00,
2013-03-21 09:56:00,35.4,12.9,29.86,NW,310,0.0,9.0,39,0.00,,---,0.00,260.00,VWS V14.01,2013-03-21 13:56:00,
2013-03-21 10:00:00,33.5,13.9,29.86,NW,311,4.0,9.0,44,0.00,,---,0.00,40.00,VWS V14.01,2013-03-21 14:00:00,
2013-03-21 10:01:00,36.0,14.6,29.86,SW,215,3.0,9.0,41,0.00,,---,0.00,295.00,VWS V14.01,2013-03-21 14:01:00,
2013-03-21 10:06:00,35.7,14.3,29.86,WNW,299,2.0,5.0,41,0.00,,---,0.00,239.00,VWS V14.01,2013-03-21 14:06:00,
2013-03-21 10:11:00,36.1,14.7,29.86,NW,324,5.0,8.0,41,0.00,,---,0.00,455.00,VWS V14.01,2013-03-21 14:11:00,
2013-03-21 10:16:00,36.1,14.7,29.86,NE,44,2.0,8.0,41,0.00,,---,0.00,255.00,VWS V14.01,2013-03-21 14:16:00,
2013-03-21 10:21:00,36.5,15.1,29.86,North,360,0.0,8.0,41,0.00,,---,0.00,519.00,VWS V14.01,2013-03-21 14:21:00,
2013-03-21 10:26:00,36.9,16.0,29.86,NNW,331,2.0,8.0,42,0.00,,---,0.00,526.00,VWS V14.01,2013-03-21 14:26:00,
2013-03-21 10:30:00,34.3,14.1,29.86,North,350,0.0,11.0,43,0.00,,---,0.00,230.00,VWS V14.01,2013-03-21 14:30:00,
2013-03-21 10:31:00,37.0,15.5,29.86,SW,217,1.0,11.0,41,0.00,,---,0.00,591.00,VWS V14.01,2013-03-21 14:31:00,
2013-03-21 10:36:00,37.2,16.2,29.86,SE,133,2.0,6.0,42,0.00,,---,0.00,605.00,VWS V14.01,2013-03-21 14:36:00,
2013-03-21 10:41:00,37.0,15.5,29.86,NW,313,0.0,9.0,41,0.00,,---,0.00,619.00,VWS V14.01,2013-03-21 14:41:00,
2013-03-21 10:46:00,36.8,15.9,29.86,NNW,336,0.0,10.0,42,0.00,,---,0.00,635.00,VWS V14.01,2013-03-21 14:46:00,
2013-03-21 10:51:00,37.2,16.2,29.87,NNW,338,1.0,10.0,42,0.00,,---,0.00,647.00,VWS V14.01,2013-03-21 14:51:00,
2013-03-21 10:56:00,37.8,16.8,29.87,North,350,0.0,10.0,42,0.00,,---,0.00,657.00,VWS V14.01,2013-03-21 14:56:00,
2013-03-21 11:00:00,36.1,14.1,29.86,SSW,205,3.0,9.0,40,0.00,,---,0.00,355.00,VWS V14.01,2013-03-21 15:00:00,
2013-03-21 11:01:00,38.3,15.5,29.87,WSW,245,1.0,10.0,39,0.00,,---,0.00,673.00,VWS V14.01,2013-03-21 15:01:00,
2013-03-21 11:06:00,38.2,14.8,29.87,NNW,341,0.0,5.0,38,0.00,,---,0.00,689.00,VWS V14.01,2013-03-21 15:06:00,
2013-03-21 11:11:00,38.9,16.1,29.86,North,355,0.0,8.0,39,0.00,,---,0.00,701.00,VWS V14.01,2013-03-21 15:11:00,
2013-03-21 11:16:00,38.3,14.3,29.86,West,259,0.0,11.0,37,0.00,,---,0.00,715.00,VWS V14.01,2013-03-21 15:16:00,
2013-03-21 11:21:00,38.3,14.9,29.86,North,360,6.0,11.0,38,0.00,,---,0.00,726.00,VWS V14.01,2013-03-21 15:21:00,
2013-03-21 11:26:00,38.8,15.4,29.87,SW,223,3.0,11.0,38,0.00,,---,0.00,737.00,VWS V14.01,2013-03-21 15:26:00,
2013-03-21 11:30:00,36.9,15.4,29.86,SW,218,0.0,11.0,41,0.00,,---,0.00,594.00,VWS V14.01,2013-03-21 15:30:00,
2013-03-21 11:31:00,39.1,14.4,29.87,North,360,2.0,11.0,36,0.00,,---,0.00,745.00,VWS V14.01,2013-03-21 15:31:00,
2013-03-21 11:36:00,38.9,14.9,29.87,NW,316,1.0,8.0,37,0.00,,---,0.00,759.00,VWS V14.01,2013-03-21 15:36:00,
2013-03-21 11:41:00,39.4,14.0,29.87,SW,233,3.0,8.0,35,0.00,,---,0.00,770.00,VWS V14.01,2013-03-21 15:41:00,
2013-03-21 11:46:00,39.9,15.1,29.87,SW,227,0.0,8.0,36,0.00,,---,0.00,780.00,VWS V14.01,2013-03-21 15:46:00,
2013-03-21 11:51:00,39.8,16.3,29.87,North,355,1.0,8.0,38,0.00,,---,0.00,788.00,VWS V14.01,2013-03-21 15:51:00,
2013-03-21 11:56:00,39.9,14.5,29.87,SW,229,0.0,8.0,35,0.00,,---,0.00,798.00,VWS V14.01,2013-03-21 15:56:00,
2013-03-21 12:00:00,38.3,15.5,29.87,WSW,252,4.0,10.0,39,0.00,,---,0.00,675.00,VWS V14.01,2013-03-21 16:00:00,
2013-03-21 12:01:00,40.1,15.9,29.86,WNW,300,0.0,8.0,37,0.00,,---,0.00,809.00,VWS V14.01,2013-03-21 16:01:00,
2013-03-21 12:06:00,40.5,14.4,29.86,WNW,292,0.0,5.0,34,0.00,,---,0.00,819.00,VWS V14.01,2013-03-21 16:06:00,
2013-03-21 12:11:00,40.7,14.5,29.86,NW,314,2.0,6.0,34,0.00,,---,0.00,826.00,VWS V14.01,2013-03-21 16:11:00,
2013-03-21 12:16:00,40.5,15.0,29.86,West,272,0.0,8.0,35,0.00,,---,0.00,833.00,VWS V14.01,2013-03-21 16:16:00,
2013-03-21 12:21:00,41.4,17.1,29.87,WSW,252,9.0,9.0,37,0.00,,---,0.00,840.00,VWS V14.01,2013-03-21 16:21:00,
2013-03-21 12:26:00,41.3,16.4,29.87,NNW,332,0.0,10.0,36,0.00,,---,0.00,846.00,VWS V14.01,2013-03-21 16:26:00,
2013-03-21 12:30:00,39.1,14.4,29.87,NW,313,2.0,11.0,36,0.00,,---,0.00,749.00,VWS V14.01,2013-03-21 16:30:00,
2013-03-21 12:31:00,42.3,17.9,29.87,North,355,4.0,10.0,37,0.00,,---,0.00,849.00,VWS V14.01,2013-03-21 16:31:00,
2013-03-21 12:36:00,41.1,14.9,29.86,WNW,293,0.0,7.0,34,0.00,,---,0.00,854.00,VWS V14.01,2013-03-21 16:36:00,
2013-03-21 12:41:00,42.1,16.4,29.87,NW,324,2.0,10.0,35,0.00,,---,0.00,861.00,VWS V14.01,2013-03-21 16:41:00,
2013-03-21 12:46:00,41.9,16.3,29.87,SSW,211,1.0,10.0,35,0.00,,---,0.00,912.00,VWS V14.01,2013-03-21 16:46:00,
2013-03-21 12:51:00,41.9,15.6,29.87,SW,214,5.0,10.0,34,0.00,,---,0.00,912.00,VWS V14.01,2013-03-21 16:51:00,
2013-03-21 12:56:00,42.7,18.3,29.87,NW,309,1.0,10.0,37,0.00,,---,0.00,919.00,VWS V14.01,2013-03-21 16:56:00,
2013-03-21 13:00:00,40.3,16.1,29.86,SSW,212,1.0,8.0,37,0.00,,---,0.00,807.00,VWS V14.01,2013-03-21 17:00:00,
2013-03-21 13:01:00,42.7,17.0,29.87,WSW,242,6.0,10.0,35,0.00,,---,0.00,918.00,VWS V14.01,2013-03-21 17:01:00,
2013-03-21 13:06:00,43.0,16.6,29.87,NNW,345,0.0,5.0,34,0.00,,---,0.00,925.00,VWS V14.01,2013-03-21 17:06:00,
2013-03-21 13:11:00,43.3,16.8,29.87,North,360,3.0,6.0,34,0.00,,---,0.00,932.00,VWS V14.01,2013-03-21 17:11:00,
2013-03-21 13:16:00,42.8,15.7,29.87,North,351,0.0,12.0,33,0.00,,---,0.00,930.00,VWS V14.01,2013-03-21 17:16:00,
2013-03-21 13:21:00,43.4,15.5,29.86,NW,306,0.0,12.0,32,0.00,,---,0.00,933.00,VWS V14.01,2013-03-21 17:21:00,
2013-03-21 13:26:00,43.3,16.1,29.86,South,186,3.0,12.0,33,0.00,,---,0.00,935.00,VWS V14.01,2013-03-21 17:26:00,
2013-03-21 13:30:00,42.4,16.7,29.87,NNW,331,0.0,10.0,35,0.00,,---,0.00,851.00,VWS V14.01,2013-03-21 17:30:00,
2013-03-21 13:31:00,43.1,15.3,29.86,SSW,193,3.0,12.0,32,0.00,,---,0.00,933.00,VWS V14.01,2013-03-21 17:31:00,
2013-03-21 13:36:00,43.5,17.0,29.86,NNW,327,1.0,11.0,34,0.00,,---,0.00,937.00,VWS V14.01,2013-03-21 17:36:00,
2013-03-21 13:41:00,43.8,16.6,29.86,North,355,8.0,11.0,33,0.00,,---,0.00,946.00,VWS V14.01,2013-03-21 17:41:00,
2013-03-21 13:46:00,43.5,14.9,29.86,SW,221,5.0,11.0,31,0.00,,---,0.00,983.00,VWS V14.01,2013-03-21 17:46:00,
2013-03-21 13:51:00,42.6,16.2,29.86,SSW,202,1.0,11.0,34,0.00,,---,0.00,1000.00,VWS V14.01,2013-03-21 17:51:00,
2013-03-21 13:56:00,42.7,15.6,29.86,SW,221,0.0,11.0,33,0.00,,---,0.00,1000.00,VWS V14.01,2013-03-21 17:56:00,
2013-03-21 14:00:00,42.6,16.2,29.87,WNW,296,0.0,10.0,34,0.00,,---,0.00,919.00,VWS V14.01,2013-03-21 18:00:00,
2013-03-21 14:01:00,43.4,16.2,29.85,WNW,288,0.0,11.0,33,0.00,,---,0.00,984.00,VWS V14.01,2013-03-21 18:01:00,
2013-03-21 14:06:00,44.3,17.0,29.85,North,349,0.0,9.0,33,0.00,,---,0.00,939.00,VWS V14.01,2013-03-21 18:06:00,
2013-03-21 14:11:00,45.4,18.7,29.85,WSW,248,0.0,9.0,34,0.00,,---,0.00,923.00,VWS V14.01,2013-03-21 18:11:00,
2013-03-21 14:16:00,45.0,19.0,29.84,SW,218,0.0,9.0,35,0.00,,---,0.00,919.00,VWS V14.01,2013-03-21 18:16:00,
2013-03-21 14:21:00,45.0,19.7,29.84,NW,306,0.0,9.0,36,0.00,,---,0.00,956.00,VWS V14.01,2013-03-21 18:21:00,
2013-03-21 14:26:00,44.7,18.1,29.84,South,172,0.0,9.0,34,0.00,,---,0.00,911.00,VWS V14.01,2013-03-21 18:26:00,
2013-03-21 14:30:00,43.0,15.9,29.86,North,360,4.0,12.0,33,0.00,,---,0.00,933.00,VWS V14.01,2013-03-21 18:30:00,
2013-03-21 14:31:00,44.6,16.6,29.84,SW,214,2.0,9.0,32,0.00,,---,0.00,900.00,VWS V14.01,2013-03-21 18:31:00,
2013-03-21 14:36:00,44.1,15.4,29.84,WSW,242,0.0,9.0,31,0.00,,---,0.00,893.00,VWS V14.01,2013-03-21 18:36:00,
2013-03-21 14:41:00,44.0,17.5,29.84,NNE,13,0.0,9.0,34,0.00,,---,0.00,895.00,VWS V14.01,2013-03-21 18:41:00,
2013-03-21 14:46:00,45.0,18.3,29.83,SSW,205,0.0,9.0,34,0.00,,---,0.00,893.00,VWS V14.01,2013-03-21 18:46:00,
2013-03-21 14:51:00,45.2,19.2,29.83,NW,313,0.0,9.0,35,0.00,,---,0.00,888.00,VWS V14.01,2013-03-21 18:51:00,
2013-03-21 14:56:00,44.9,17.6,29.84,NE,53,4.0,11.0,33,0.00,,---,0.00,868.00,VWS V14.01,2013-03-21 18:56:00,
2013-03-21 15:00:00,43.6,15.7,29.85,SW,230,4.0,11.0,32,0.00,,---,0.00,972.00,VWS V14.01,2013-03-21 19:00:00,
2013-03-21 15:01:00,44.8,16.8,29.83,West,261,0.0,11.0,32,0.00,,---,0.00,858.00,VWS V14.01,2013-03-21 19:01:00,
2013-03-21 15:06:00,45.0,16.2,29.84,SSW,194,6.0,8.0,31,0.00,,---,0.00,851.00,VWS V14.01,2013-03-21 19:06:00,
2013-03-21 15:11:00,44.8,19.5,29.84,SW,216,0.0,8.0,36,0.00,,---,0.00,849.00,VWS V14.01,2013-03-21 19:11:00,
2013-03-21 15:16:00,45.7,17.5,29.83,WSW,254,1.0,10.0,32,0.00,,---,0.00,833.00,VWS V14.01,2013-03-21 19:16:00,
2013-03-21 15:21:00,45.6,17.5,29.83,South,178,0.0,11.0,32,0.00,,---,0.00,824.00,VWS V14.01,2013-03-21 19:21:00,
2013-03-21 15:26:00,46.0,17.8,29.83,West,275,4.0,11.0,32,0.00,,---,0.00,821.00,VWS V14.01,2013-03-21 19:26:00,
2013-03-21 15:30:00,44.5,16.5,29.84,SW,215,1.0,9.0,32,0.00,,---,0.00,898.00,VWS V14.01,2013-03-21 19:30:00,
2013-03-21 15:31:00,45.3,17.9,29.83,NW,318,5.0,11.0,33,0.00,,---,0.00,809.00,VWS V14.01,2013-03-21 19:31:00,
2013-03-21 15:36:00,45.2,19.2,29.84,NNW,331,3.0,14.0,35,0.00,,---,0.00,786.00,VWS V14.01,2013-03-21 19:36:00,
2013-03-21 15:41:00,45.4,16.5,29.83,SW,236,0.0,14.0,31,0.00,,---,0.00,779.00,VWS V14.01,2013-03-21 19:41:00,
2013-03-21 15:46:00,45.1,17.7,29.83,East,92,0.0,14.0,33,0.00,,---,0.00,766.00,VWS V14.01,2013-03-21 19:46:00,
2013-03-21 15:51:00,45.4,18.0,29.83,South,178,4.0,14.0,33,0.00,,---,0.00,758.00,VWS V14.01,2013-03-21 19:51:00,
2013-03-21 15:56:00,45.2,16.4,29.83,SW,218,6.0,16.0,31,0.00,,---,0.00,747.00,VWS V14.01,2013-03-21 19:56:00,
2013-03-21 16:00:00,45.0,19.0,29.83,SW,236,0.0,11.0,35,0.00,,---,0.00,858.00,VWS V14.01,2013-03-21 20:00:00,
2013-03-21 16:01:00,45.5,17.4,29.83,South,182,0.0,16.0,32,0.00,,---,0.00,733.00,VWS V14.01,2013-03-21 20:01:00,
2013-03-21 16:06:00,45.3,15.7,29.84,South,169,4.0,21.0,30,0.00,,---,0.00,719.00,VWS V14.01,2013-03-21 20:06:00,
2013-03-21 16:11:00,45.6,18.2,29.84,SSE,148,2.0,21.0,33,0.00,,---,0.00,705.00,VWS V14.01,2013-03-21 20:11:00,
2013-03-21 16:16:00,45.2,17.1,29.84,NNW,343,0.0,21.0,32,0.00,,---,0.00,689.00,VWS V14.01,2013-03-21 20:16:00,
2013-03-21 16:21:00,45.5,18.8,29.83,North,360,0.0,21.0,34,0.00,,---,0.00,673.00,VWS V14.01,2013-03-21 20:21:00,
2013-03-21 16:26:00,45.3,17.9,29.84,NW,326,2.0,21.0,33,0.00,,---,0.00,661.00,VWS V14.01,2013-03-21 20:26:00,
2013-03-21 16:30:00,45.3,17.9,29.83,NW,315,3.0,11.0,33,0.00,,---,0.00,807.00,VWS V14.01,2013-03-21 20:30:00,
2013-03-21 16:31:00,45.0,17.6,29.84,NNE,25,1.0,21.0,33,0.00,,---,0.00,642.00,VWS V14.01,2013-03-21 20:31:00,
2013-03-21 16:36:00,44.8,16.8,29.84,WSW,250,2.0,11.0,32,0.00,,---,0.00,628.00,VWS V14.01,2013-03-21 20:36:00,
2013-03-21 16:41:00,45.3,19.3,29.84,East,79,0.0,11.0,35,0.00,,---,0.00,613.00,VWS V14.01,2013-03-21 20:41:00,
2013-03-21 16:46:00,45.6,16.7,29.84,WSW,247,0.0,11.0,31,0.00,,---,0.00,589.00,VWS V14.01,2013-03-21 20:46:00,
2013-03-21 16:51:00,46.3,18.8,29.84,West,279,0.0,11.0,33,0.00,,---,0.00,585.00,VWS V14.01,2013-03-21 20:51:00,
2013-03-21 16:56:00,45.6,18.9,29.84,SSW,208,0.0,11.0,34,0.00,,---,0.00,554.00,VWS V14.01,2013-03-21 20:56:00,
2013-03-21 17:00:00,45.6,17.5,29.83,SSE,168,2.0,16.0,32,0.00,,---,0.00,729.00,VWS V14.01,2013-03-21 21:00:00,
2013-03-21 17:01:00,45.2,17.8,29.85,South,188,2.0,11.0,33,0.00,,---,0.00,545.00,VWS V14.01,2013-03-21 21:01:00,
2013-03-21 17:06:00,45.0,18.3,29.85,NE,44,2.0,8.0,34,0.00,,---,0.00,529.00,VWS V14.01,2013-03-21 21:06:00,
2013-03-21 17:11:00,44.5,17.2,29.85,SSW,208,1.0,8.0,33,0.00,,---,0.00,522.00,VWS V14.01,2013-03-21 21:11:00,
2013-03-21 17:16:00,44.5,17.2,29.85,SE,146,1.0,8.0,33,0.00,,---,0.00,464.00,VWS V14.01,2013-03-21 21:16:00,
2013-03-21 17:21:00,44.1,16.9,29.85,NW,326,0.0,9.0,33,0.00,,---,0.00,397.00,VWS V14.01,2013-03-21 21:21:00,
2013-03-21 17:26:00,44.1,16.9,29.86,North,360,4.0,12.0,33,0.00,,---,0.00,352.00,VWS V14.01,2013-03-21 21:26:00,
2013-03-21 17:30:00,45.0,16.9,29.84,NE,52,2.0,21.0,32,0.00,,---,0.00,642.00,VWS V14.01,2013-03-21 21:30:00,
2013-03-21 17:31:00,43.4,16.2,29.86,NNE,27,1.0,12.0,33,0.00,,---,0.00,287.00,VWS V14.01,2013-03-21 21:31:00,
2013-03-21 17:36:00,43.4,16.2,29.86,SSW,196,3.0,6.0,33,0.00,,---,0.00,199.00,VWS V14.01,2013-03-21 21:36:00,
2013-03-21 17:41:00,43.2,16.1,29.86,SW,234,0.0,9.0,33,0.00,,---,0.00,190.00,VWS V14.01,2013-03-21 21:41:00,
2013-03-21 17:46:00,42.9,16.5,29.86,SSW,196,1.0,9.0,34,0.00,,---,0.00,213.00,VWS V14.01,2013-03-21 21:46:00,
2013-03-21 17:51:00,42.7,17.0,29.86,North,360,14.0,14.0,35,0.00,,---,0.00,156.00,VWS V14.01,2013-03-21 21:51:00,
2013-03-21 17:56:00,42.5,16.8,29.86,NNE,15,2.0,14.0,35,0.00,,---,0.00,209.00,VWS V14.01,2013-03-21 21:56:00,
2013-03-21 18:00:00,45.2,18.5,29.85,WSW,237,0.0,11.0,34,0.00,,---,0.00,545.00,VWS V14.01,2013-03-21 22:00:00,
2013-03-21 18:01:00,42.2,16.5,29.87,North,355,4.0,14.0,35,0.00,,---,0.00,223.00,VWS V14.01,2013-03-21 22:01:00,
2013-03-21 18:06:00,42.3,16.6,29.87,NNE,28,3.0,7.0,35,0.00,,---,0.00,141.00,VWS V14.01,2013-03-21 22:06:00,
2013-03-21 18:11:00,42.3,16.6,29.87,NNE,15,2.0,7.0,35,0.00,,---,0.00,88.00,VWS V14.01,2013-03-21 22:11:00,
2013-03-21 18:16:00,41.8,16.2,29.87,West,280,1.0,13.0,35,0.00,,---,0.00,93.00,VWS V14.01,2013-03-21 22:16:00,
2013-03-21 18:21:00,41.4,15.8,29.87,North,9,2.0,13.0,35,0.00,,---,0.00,130.00,VWS V14.01,2013-03-21 22:21:00,
2013-03-21 18:26:00,41.3,16.4,29.87,NW,315,0.0,13.0,36,0.00,,---,0.00,120.00,VWS V14.01,2013-03-21 22:26:00,
2013-03-21 18:30:00,43.4,16.9,29.86,NE,38,0.0,12.0,34,0.00,,---,0.00,287.00,VWS V14.01,2013-03-21 22:30:00,
2013-03-21 18:31:00,41.4,15.8,29.88,ESE,108,2.0,13.0,35,0.00,,---,0.00,95.00,VWS V14.01,2013-03-21 22:31:00,
2013-03-21 18:36:00,40.9,15.4,29.88,WSW,240,1.0,8.0,35,0.00,,---,0.00,79.00,VWS V14.01,2013-03-21 22:36:00,
2013-03-21 18:41:00,40.5,15.7,29.88,NNW,333,0.0,8.0,36,0.00,,---,0.00,91.00,VWS V14.01,2013-03-21 22:41:00,
2013-03-21 18:46:00,40.5,16.3,29.88,NNW,342,2.0,8.0,37,0.00,,---,0.00,74.00,VWS V14.01,2013-03-21 22:46:00,
2013-03-21 18:51:00,40.3,15.5,29.88,NNE,14,2.0,8.0,36,0.00,,---,0.00,70.00,VWS V14.01,2013-03-21 22:51:00,
2013-03-21 18:56:00,40.1,15.3,29.88,NNE,17,0.0,8.0,36,0.00,,---,0.00,69.00,VWS V14.01,2013-03-21 22:56:00,
2013-03-21 19:00:00,42.2,16.5,29.87,SW,221,1.0,14.0,35,0.00,,---,0.00,223.00,VWS V14.01,2013-03-21 23:00:00,
2013-03-21 19:01:00,39.9,15.8,29.89,NNW,333,4.0,10.0,37,0.00,,---,0.00,67.00,VWS V14.01,2013-03-21 23:01:00,
2013-03-21 19:06:00,39.7,15.6,29.89,NW,323,0.0,3.0,37,0.00,,---,0.00,65.00,VWS V14.01,2013-03-21 23:06:00,
2013-03-21 19:11:00,39.5,15.4,29.89,NNW,333,0.0,9.0,37,0.00,,---,0.00,62.00,VWS V14.01,2013-03-21 23:11:00,
2013-03-21 19:16:00,39.3,15.2,29.90,West,279,0.0,9.0,37,0.00,,---,0.00,60.00,VWS V14.01,2013-03-21 23:16:00,
2013-03-21 19:21:00,39.0,14.9,29.90,NNW,332,3.0,9.0,37,0.00,,---,0.00,58.00,VWS V14.01,2013-03-21 23:21:00,
2013-03-21 19:26:00,38.7,14.7,29.90,WNW,283,0.0,9.0,37,0.00,,---,0.00,54.00,VWS V14.01,2013-03-21 23:26:00,
2013-03-21 19:30:00,41.4,15.8,29.88,North,350,1.0,13.0,35,0.00,,---,0.00,88.00,VWS V14.01,2013-03-21 23:30:00,
2013-03-21 19:31:00,38.5,15.1,29.90,NNW,337,0.0,11.0,38,0.00,,---,0.00,51.00,VWS V14.01,2013-03-21 23:31:00,
2013-03-21 19:36:00,38.2,14.8,29.90,North,5,0.0,6.0,38,0.00,,---,0.00,49.00,VWS V14.01,2013-03-21 23:36:00,
2013-03-21 19:41:00,38.0,14.7,29.90,WSW,248,0.0,8.0,38,0.00,,---,0.00,47.00,VWS V14.01,2013-03-21 23:41:00,
2013-03-21 19:46:00,37.8,15.1,29.91,WNW,284,0.0,8.0,39,0.00,,---,0.00,46.00,VWS V14.01,2013-03-21 23:46:00,
2013-03-21 19:51:00,37.7,15.0,29.91,NW,325,0.0,8.0,39,0.00,,---,0.00,46.00,VWS V14.01,2013-03-21 23:51:00,
2013-03-21 19:56:00,37.6,14.9,29.91,West,272,0.0,8.0,39,0.00,,---,0.00,46.00,VWS V14.01,2013-03-21 23:56:00,
2013-03-21 20:00:00,39.8,15.7,29.89,NNW,331,1.0,10.0,37,0.00,,---,0.00,67.00,VWS V14.01,2013-03-22 00:00:00,
2013-03-21 20:01:00,37.4,14.7,29.91,SSW,205,2.0,8.0,39,0.00,,---,0.00,46.00,VWS V14.01,2013-03-22 00:01:00,
2013-03-21 20:06:00,37.3,14.6,29.92,NNE,24,0.0,3.0,39,0.00,,---,0.00,46.00,VWS V14.01,2013-03-22 00:06:00,
2013-03-21 20:11:00,37.2,14.5,29.92,North,355,1.0,5.0,39,0.00,,---,0.00,46.00,VWS V14.01,2013-03-22 00:11:00,
2013-03-21 20:16:00,37.1,15.0,29.92,NNE,15,0.0,5.0,40,0.00,,---,0.00,46.00,VWS V14.01,2013-03-22 00:16:00,
2013-03-21 20:21:00,37.0,14.4,29.92,ENE,59,0.0,6.0,39,0.00,,---,0.00,46.00,VWS V14.01,2013-03-22 00:21:00,
2013-03-21 20:26:00,36.9,14.9,29.92,WSW,246,0.0,6.0,40,0.00,,---,0.00,46.00,VWS V14.01,2013-03-22 00:26:00,
2013-03-21 20:30:00,38.4,15.0,29.90,North,5,6.0,11.0,38,0.00,,---,0.00,51.00,VWS V14.01,2013-03-22 00:30:00,
2013-03-21 20:31:00,36.8,15.3,29.92,WSW,246,0.0,6.0,41,0.00,,---,0.00,46.00,VWS V14.01,2013-03-22 00:31:00,
2013-03-21 20:36:00,36.5,15.1,29.93,WSW,254,0.0,1.0,41,0.00,,---,0.00,46.00,VWS V14.01,2013-03-22 00:36:00,
2013-03-21 20:41:00,36.4,15.0,29.93,NNW,337,0.0,4.0,41,0.00,,---,0.00,46.00,VWS V14.01,2013-03-22 00:41:00,
2013-03-21 20:46:00,36.3,14.9,29.93,NNW,329,2.0,4.0,41,0.00,,---,0.00,46.00,VWS V14.01,2013-03-22 00:46:00,
2013-03-21 20:51:00,36.2,15.3,29.93,NW,326,0.0,4.0,42,0.00,,---,0.00,46.00,VWS V14.01,2013-03-22 00:51:00,
2013-03-21 20:56:00,36.0,15.1,29.93,NW,323,0.0,4.0,42,0.00,,---,0.00,46.00,VWS V14.01,2013-03-22 00:56:00,
2013-03-21 21:00:00,37.4,14.7,29.91,NW,321,0.0,8.0,39,0.00,,---,0.00,46.00,VWS V14.01,2013-03-22 01:00:00,
2013-03-21 21:01:00,35.9,15.1,29.93,NNW,340,2.0,4.0,42,0.00,,---,0.00,46.00,VWS V14.01,2013-03-22 01:01:00,
2013-03-21 21:06:00,35.9,15.1,29.93,NNW,340,0.0,4.0,42,0.00,,---,0.00,46.00,VWS V14.01,2013-03-22 01:06:00,
2013-03-21 21:11:00,36.0,15.1,29.93,WNW,303,0.0,5.0,42,0.00,,---,0.00,46.00,VWS V14.01,2013-03-22 01:11:00,
2013-03-21 21:16:00,35.9,15.1,29.94,NNE,15,0.0,5.0,42,0.00,,---,0.00,46.00,VWS V14.01,2013-03-22 01:16:00,
2013-03-21 21:21:00,35.9,15.1,29.94,NNW,348,4.0,6.0,42,0.00,,---,0.00,46.00,VWS V14.01,2013-03-22 01:21:00,
2013-03-21 21:26:00,35.9,15.6,29.94,NW,321,0.0,6.0,43,0.00,,---,0.00,46.00,VWS V14.01,2013-03-22 01:26:00,
2013-03-21 21:30:00,36.7,15.2,29.92,WSW,247,0.0,6.0,41,0.00,,---,0.00,46.00,VWS V14.01,2013-03-22 01:30:00,
2013-03-21 21:31:00,35.9,15.1,29.94,North,5,0.0,6.0,42,0.00,,---,0.00,46.00,VWS V14.01,2013-03-22 01:31:00,
2013-03-21 21:36:00,35.6,14.8,29.94,NW,307,5.0,8.0,42,0.00,,---,0.00,46.00,VWS V14.01,2013-03-22 01:36:00,
2013-03-21 21:41:00,35.5,15.2,29.94,NW,306,0.0,8.0,43,0.00,,---,0.00,46.00,VWS V14.01,2013-03-22 01:41:00,
2013-03-21 21:46:00,35.3,14.5,29.94,NNW,337,0.0,8.0,42,0.00,,---,0.00,46.00,VWS V14.01,2013-03-22 01:46:00,
2013-03-21 21:51:00,35.1,14.3,29.95,NW,317,0.0,8.0,42,0.00,,---,0.00,46.00,VWS V14.01,2013-03-22 01:51:00,
2013-03-21 21:56:00,34.9,14.1,29.95,North,355,0.0,8.0,42,0.00,,---,0.00,46.00,VWS V14.01,2013-03-22 01:56:00,
2013-03-21 22:00:00,35.9,15.1,29.93,NNW,337,2.0,4.0,42,0.00,,---,0.00,46.00,VWS V14.01,2013-03-22 02:00:00,
2013-03-21 22:01:00,34.6,14.4,29.95,NNE,24,0.0,8.0,43,0.00,,---,0.00,46.00,VWS V14.01,2013-03-22 02:01:00,
2013-03-21 22:06:00,34.4,13.7,29.95,NW,320,0.0,2.0,42,0.00,,---,0.00,46.00,VWS V14.01,2013-03-22 02:06:00,
2013-03-21 22:11:00,34.4,14.2,29.95,North,360,0.0,3.0,43,0.00,,---,0.00,46.00,VWS V14.01,2013-03-22 02:11:00,
2013-03-21 22:16:00,34.3,14.1,29.95,NNW,330,0.0,3.0,43,0.00,,---,0.00,46.00,VWS V14.01,2013-03-22 02:16:00,
2013-03-21 22:21:00,34.1,14.5,29.95,NNW,329,0.0,5.0,44,0.00,,---,0.00,46.00,VWS V14.01,2013-03-22 02:21:00,
2013-03-21 22:26:00,33.9,13.8,29.95,NNE,29,0.0,5.0,43,0.00,,---,0.00,46.00,VWS V14.01,2013-03-22 02:26:00,
2013-03-21 22:30:00,35.8,15.0,29.94,West,268,0.0,6.0,42,0.00,,---,0.00,46.00,VWS V14.01,2013-03-22 02:30:00,
2013-03-21 22:31:00,33.8,14.2,29.96,NW,324,0.0,5.0,44,0.00,,---,0.00,46.00,VWS V14.01,2013-03-22 02:31:00,
2013-03-21 22:36:00,33.7,14.1,29.96,North,5,0.0,2.0,44,0.00,,---,0.00,46.00,VWS V14.01,2013-03-22 02:36:00,
2013-03-21 22:41:00,33.4,14.4,29.97,NE,43,3.0,3.0,45,0.00,,---,0.00,46.00,VWS V14.01,2013-03-22 02:41:00,
2013-03-21 22:46:00,33.2,14.2,29.97,NE,43,0.0,3.0,45,0.00,,---,0.00,46.00,VWS V14.01,2013-03-22 02:46:00,
2013-03-21 22:51:00,32.9,13.9,29.97,WNW,298,2.0,5.0,45,0.00,,---,0.00,46.00,VWS V14.01,2013-03-22 02:51:00,
2013-03-21 22:56:00,32.7,13.7,29.97,NNE,22,0.0,7.0,45,0.00,,---,0.00,46.00,VWS V14.01,2013-03-22 02:56:00,
2013-03-21 23:00:00,34.6,14.4,29.95,NNE,24,0.0,8.0,43,0.00,,---,0.00,46.00,VWS V14.01,2013-03-22 03:00:00,
2013-03-21 23:01:00,32.5,13.5,29.97,West,271,0.0,7.0,45,0.00,,---,0.00,46.00,VWS V14.01,2013-03-22 03:01:00,
2013-03-21 23:06:00,32.3,13.4,29.97,North,355,0.0,4.0,45,0.00,,---,0.00,46.00,VWS V14.01,2013-03-22 03:06:00,
2013-03-21 23:11:00,32.1,13.2,29.98,NNW,338,0.0,5.0,45,0.00,,---,0.00,46.00,VWS V14.01,2013-03-22 03:11:00,
2013-03-21 23:16:00,31.9,13.0,29.98,NNE,32,0.0,5.0,45,0.00,,---,0.00,46.00,VWS V14.01,2013-03-22 03:16:00,
2013-03-21 23:21:00,31.7,13.3,29.99,NNE,32,0.0,5.0,46,0.00,,---,0.00,46.00,VWS V14.01,2013-03-22 03:21:00,
2013-03-21 23:26:00,31.6,13.2,29.99,NNE,32,0.0,5.0,46,0.00,,---,0.00,46.00,VWS V14.01,2013-03-22 03:26:00,
2013-03-21 23:30:00,33.7,14.1,29.96,WSW,246,2.0,5.0,44,0.00,,---,0.00,46.00,VWS V14.01,2013-03-22 03:30:00,
2013-03-21 23:31:00,31.4,13.0,29.99,NNW,346,2.0,5.0,46,0.00,,---,0.00,44.00,VWS V14.01,2013-03-22 03:31:00,
2013-03-21 23:36:00,31.2,13.3,29.99,NNW,344,0.0,0.0,47,0.00,,---,0.00,46.00,VWS V14.01,2013-03-22 03:36:00,
2013-03-21 23:41:00,31.0,13.1,30.00,North,360,3.0,5.0,47,0.00,,---,0.00,46.00,VWS V14.01,2013-03-22 03:41:00,
2013-03-21 23:46:00,30.8,13.4,30.00,NNW,347,0.0,5.0,48,0.00,,---,0.00,46.00,VWS V14.01,2013-03-22 03:46:00,
2013-03-21 23:51:00,30.7,13.4,30.00,NNW,348,0.0,5.0,48,0.00,,---,0.00,46.00,VWS V14.01,2013-03-22 03:51:00,
2013-03-21 23:56:00,30.6,13.3,30.00,NNW,348,0.0,5.0,48,0.00,,---,0.00,46.00,VWS V14.01,2013-03-22 03:56:00,